Location: Chircca
(13.7944°S, 72.0608°W)
Time: 04:51:29
(UTC+00:00)

Hubble Space Telescope - Pass Details

Date: 14 July 2020
Orbit: 536 x 540 km, 28.5° (Epoch: 14 August)

Event Time Altitude Azimuth Distance (km) Brightness Sun altitude
Exits shadow 10:18:07 18° 224° (SW) 1,359 2.3 -13.3°
Maximum altitude 10:19:28 21° 198° (SSW) 1,244 2.3 -12.9°
Drops below altitude 10° 10:22:39 10° 147° (SSE) 1,797 3.6 -12.2°
Sets 10:25:22 0° 131° (SE) 2,690 4.8 -11.6°
